Regional Weather Roundup
Issued by NWS

Home | Current Version | Previous Version | Graphics & Text | Print | Product List | Glossary On
Versions: 1 2 3 4 5 6 7 8 9 10 11 12 13 14 15 16 17 18 19 20 21 22 23 24 25 26 27 28 29 30 31 32 33 34 35 36 37 38 39 40 41 42 43 44 45 46 47 48 49 50
000
ASUS43 KMKX 011000
RWRWI

WISCONSIN REGIONAL WEATHER ROUNDUP
NATIONAL WEATHER SERVICE MILWAUKEE/SULLIVAN WI
400 AM CST SUN FEB 01 2015

NOTE: "FAIR" INDICATES FEW OR NO CLOUDS BELOW 12,000 FEET WITH NO
SIGNIFICANT WEATHER AND/OR OBSTRUCTIONS TO VISIBILITY.

WIZ001-002-006>008-014>016-023>028-011100-
NORTHWEST WISCONSIN

CITY           SKY/WX    TMP DP  RH WIND       PRES   REMARKS
SUPERIOR ARPT  LGT SNOW  11   8  89 NE9G17    30.37S VSB 1   WCI  -2
ASHLAND        CLOUDY    10   1  67 E8        30.36F WCI  -2
HAYWARD        CLOUDY     9   0  67 NE13      30.27S WCI  -7
SIREN          CLOUDY    13   7  75 NE8       30.27F WCI   2
CUMBERLAND     CLOUDY    12   3  67 NE17      30.21F WCI  -5
RICE LAKE      CLOUDY    13   4  64 NE12G17   30.24F WCI   0
CHETEK         CLOUDY    13   4  68 NE10      30.22F WCI   0
LADYSMITH      CLOUDY    12   3  69 NE15      30.24F WCI  -4
EAU CLAIRE     LGT SNOW  15   9  76 NE15      30.19F WCI   0
MENOMONIE      CLOUDY    16   9  75 NE13      30.21S HAZE    WCI   2
NEW RICHMOND   CLOUDY    15   6  67 NE17G23   30.21S WCI  -1
OSCEOLA        CLOUDY    16   6  63 NE15G21   30.25F WCI   2
$$

WIZ003>005-009-010-017-018-011100-
NORTH CENTRAL WISCONSIN

CITY           SKY/WX    TMP DP  RH WIND       PRES   REMARKS
MANITOWISH WTR CLOUDY     2  -3  77 NE6       30.25F WCI  -9
ARBOR VITAE    CLOUDY     5  -1  77 NE6       30.25F WCI  -6
WOODRUFF       CLOUDY     5  -1  77 NE6       30.25F WCI  -6
RHINELANDER    CLOUDY     5  -2  72 NE9       30.22F WCI  -9
EAGLE RIVER    CLOUDY     4  -3  72 NE6       30.25S WCI  -7
LAND O LAKES   CLOUDY     4  -1  80 N5        30.27S WCI  -6
PHILLIPS       CLOUDY     5  -1  75 NE12G17   30.24F WCI -11
TOMAHAWK       CLOUDY     6   0  74 NE5       30.24F WCI  -3
MEDFORD        CLOUDY    10   3  73 NE14      30.19S WCI  -6
MERRILL        CLOUDY     9   1  69 NE13      30.23F WCI  -7
$$

WIZ029-030-035-036-043>047-011100-
CENTRAL WISCONSIN

CITY           SKY/WX    TMP DP  RH WIND       PRES   REMARKS
WAUSAU         CLOUDY    10   2  69 NE10      30.21F WCI  -4
MOSINEE        LGT SNOW  12   5  73 NE13      30.21F WCI  -3
MARSHFIELD     LGT SNOW  13   7  77 E16G28    30.18S WCI  -3
STEVENS POINT  LGT SNOW  10   5  80 NE12G22   30.21F WCI  -5
WAUPACA        CLOUDY    14   8  77 NE10      30.23F HAZE    WCI   2
WAUTOMA        LGT SNOW  12   9  85 NE12G22   30.19F FOG     WCI  -2
WISC RAPIDS    LGT SNOW  12   6  77 E12       30.21S WCI  -2
CAMP DOUGLAS   LGT SNOW  16  16 100 NE15G21   30.16S FOG     WCI   1
$$

WIZ011>013-019>022-031-037>040-048>050-011100-
NORTHEAST WISCONSIN

CITY           SKY/WX    TMP DP  RH WIND       PRES   REMARKS
ANTIGO         CLOUDY     7   1  76 NE14      30.21F WCI  -9
SHAWANO        CLOUDY    14   5  67 NE14      30.26F WCI   0
OCONTO         CLOUDY    12   5  73 MISG      30.28F
STURGEON BAY   CLOUDY    12   7  79 N12       30.27F WCI  -2
GREEN BAY      LGT SNOW  14   7  73 NE21G30   30.24F WCI  -4
MANITOWOC      LGT SNOW  16  12  86 N10       30.22S FOG     WCI   3
APPLETON       LGT SNOW  14   9  79 NE13      30.22F WCI   0
CLINTONVILLE   FLURRIES  14   5  67 NE9       30.25F WCI   2
OSHKOSH        LGT SNOW  14  10  84 NE21G28   30.18F VSB 1   WCI  -4
$$

WIZ032>034-041-042-053>061-011100-
SOUTHWEST WISCONSIN

CITY           SKY/WX    TMP DP  RH WIND       PRES   REMARKS
LA CROSSE      LGT SNOW  24  18  77 NE14G23   30.12S WCI  12
SPARTA         LGT SNOW  19  15  85 E16       30.15S WCI   4
VIROQUA        CLOUDY    19  16  88 E26G35    30.05F WCI   1
BOSCOBEL       LGT SNOW  24  20  84 NE15G24   30.06F VSB 3/4 WCI  11
PRAIRIE DU CHI LGT SNOW  27  23  85 E12G20    30.03F WCI  17
PLATTEVILLE    CLOUDY    27  25  93 NE22      29.99F VSB 1   WCI  12
$$

WIZ056-057-062-063-064-067-068-011100-
SOUTH CENTRAL WISCONSIN

CITY           SKY/WX    TMP DP  RH WIND       PRES   REMARKS
REEDSBURG      LGT SNOW  16  12  86 NE13G21   30.13S WCI   2
BARABOO/DELLS  LGT SNOW  15  12  87 NE10G17   30.13S VSB 3/4 WCI   3
LONE ROCK      NOT AVBL
MINERAL POINT  LGT SNOW  27  25  93 NE20      30.01F VSB 3/4 WCI  13
MADISON        LGT SNOW  19  15  84 NE18      30.10F FOG     WCI   4
MIDDLETON      CLOUDY    21  17  85 NE16G22   30.10S WCI   7
WATERTOWN      LGT SNOW  23  21  93 NE13G18   30.11S WCI  11
MONROE         LGT SNOW  27  27 100 NE16      30.02F WCI  14
JANESVILLE     LGT SNOW  30  28  93 E20       30.06F WCI  18
$$

WIZ051-052-058>065-066-070>072-011100-
SOUTHEAST WISCONSIN

CITY           SKY/WX    TMP DP  RH WIND       PRES   REMARKS
MILWAUKEE      LGT SNOW  26  22  84 NE20G29   30.12F FOG     WCI  12
WAUKESHA       LGT SNOW  23  23 100 E13       30.12F WCI  11
MILWAUKEE/TIMM LGT SNOW  27  21  80 NE12G22   30.13F WCI  16
RACINE         LGT SNOW  28  25  88 NE22G28   30.12F VSB 3/4 WCI  14
BURLINGTON     LGT SNOW  26  25  95 NE15      30.09F WCI  14
KENOSHA        LGT SNOW  29  27  92 NE15      30.09F FOG     WCI  18
FOND DU LAC    LGT SNOW  15  10  80 NE20      30.18F WCI  -2
SHEBOYGAN      LGT SNOW  17  13  84 N14G23    30.17F FOG     WCI   3
WEST BEND      LGT SNOW  19  18  93 NE10      30.13F WCI   8
JUNEAU         LGT SNOW  17  14  88 NE16G23   30.14F WCI   1
$$

LSZ147-162-011100-
LAKE SUPERIOR

STATION/POSITION TIME  TEMP    WIND        PRES    WAVE
                       AIR SEA DIR/SP/G            HT/PER
                 (UTC) (F)     (DEG/KT/KT) (MB)    (FT/S)
DEVILS ISLAND    0900   12      60/ 20/ 24 1031.1F
PORT WING        0940   13      60/ 15/ 19 1028.4S
SAXON HARBOR     0900    9      CALM  /  8 1028.8S
$$

LMZ867-665-643>646-011100-
LAKE MICHIGAN

STATION/POSITION TIME  TEMP    WIND        PRES    WAVE
                       AIR SEA DIR/SP/G            HT/PER
                 (UTC) (F)     (DEG/KT/KT) (MB)    (FT/S)
NORTHPORT PIER   0928   15      10/ 16/ 20 1026.1F
SISTER BAY       0913   14      30/ 14/ 18   N/A
KEWAUNEE LAKESHO 0900   15      10/ 11/ 16 1023.7F
SHEBOYGAN LAKESH 0900   24      50/ 25/ 26 1023.3F
PORT WASHINGTON  0932   26      50/ 21/ 25 1022.0F
MILWAUKEE LAKESH 0900   27      50/ 25/ 29   N/A
KENOSHA   LAKESH 0900   29      60/ 19/ 21 1019.3F
$$

TC  - TEMPERATURE IN CELSIUS
VSB - VISIBILITY IN STATUTE MILES
WCI - WIND CHILL INDEX
HX  - HEAT INDEX



USA.gov is the U.S. government's official web portal to all federal, state and local government web resources and services.